Location: Bishopstone
(51.0167°N, 1.9000°W)
Time: 07:30:27
(UTC+00:00)

Cosmos 1821 Rocket - Pass Details

Date: 16 September 2019
Orbit: 944 x 1005 km, 82.9° (Epoch: 22 October)

Event Time Altitude Azimuth Distance (km) Brightness Sun altitude
Rises 21:34:33 0° 349° (NNW) 3,678 7.9 -27.9°
Reaches altitude 10° 21:37:05 10° 348° (NNW) 2,718 7.0 -28.2°
Maximum altitude 21:43:17 80° 263° (W) 977 3.9 -28.8°
Enters shadow 21:43:43 75° 215° (SW) 992 3.9 -28.9°
